Location: Castle Hill Houses
(40.8186°N, 73.8497°W)
Time: 21:36:04
(UTC+00:00)

STARLINK-1042 - Pass Details

Date: 26 January 2020
Orbit: 548 x 551 km, 53.0° (Epoch: 28 February)

Event Time Altitude Azimuth Distance (km) Brightness Sun altitude
Exits shadow 10:56:56 10° 231° (SW) 1,820 5.9 -14.2°
Reaches altitude 10° 10:56:56 10° 231° (SW) 1,816 5.9 -14.2°
Maximum altitude 11:01:04 88° 318° (NW) 555 3.6 -13.4°
Drops below altitude 10° 11:05:14 10° 51° (NE) 1,828 6.8 -12.6°
Sets 11:07:29 0° 52° (NE) 2,726 7.7 -12.2°
